Home > Weather > Rochester > Past weeks

Flag for USA Past Weather in Rochester, New York, USA — Yesterday and Last 2 Weeks

Now
76 °F

Passing clouds.


Feels Like: 78 °F
Forecast: 67 / 88 °F
Wind: No wind

Location: Greater Rochester International Airport

Current Time: Jul 26, 2016 at 9:48:53 PM

Latest Report: Jul 26, 2016 at 8:54 PM


Visibility: 10 mi

Pressure: 29.96 "Hg

Humidity: 58%

Dew Point: 60 °F

Location of RochesterLocation

Past Weather in Rochester — Graph

°F

Rochester Temperature Yesterday

Maximum temperature yesterday: 84 °F (at 6:54 PM)
Minimum temperature yesterday: 70 °F (at 1:54 AM)
Average temperature yesterday: 75 °F

High & Low Weather Summary for the Past Weeks

 TemperatureHumidityPressure
High94 °F (Jul 13, 3:54 PM)97% (Jul 17, 5:54 AM)30.28 "Hg (Jul 17, 5:54 AM)
Low53 °F (Jul 20, 5:54 AM)27% (Jul 21, 5:54 PM)29.75 "Hg (Jul 14, 4:54 PM)
Average76 °F63%29.99 "Hg
* Reported Jul 11 7:54 PM — Jul 26 7:54 PM, Rochester, Weather by CustomWeather, © 2016

Note: Actual official high and low records may vary slightly from our data, if they occured in-between our weather recording intervals... More about our weather records

Advertising

Rochester Weather History for the Previous 24 Hours

Scroll right to see more
 ConditionsComfort  
Time TempWeatherWind HumidityBarometerVisibility
7:54 PM
Tue, Jul 26
82 °FPassing clouds.6 mph43%29.96 "Hg10 mi
6:54 PM83 °FPassing clouds.9 mph41%29.96 "Hg10 mi
5:54 PM84 °FScattered clouds.8 mph38%29.96 "Hg10 mi
4:54 PM84 °FPartly sunny.9 mph41%29.96 "Hg10 mi
3:54 PM84 °FPartly sunny.9 mph45%29.97 "Hg10 mi
2:54 PM81 °FPartly sunny.8 mph51%29.98 "Hg10 mi
1:54 PM82 °FScattered clouds.10 mph51%29.98 "Hg10 mi
12:54 PM79 °FPartly sunny.9 mph58%29.99 "Hg10 mi
11:54 AM78 °FScattered clouds.13 mph60%30.00 "Hg10 mi
10:54 AM76 °FScattered clouds.9 mph64%29.99 "Hg10 mi
9:54 AM75 °FScattered clouds.13 mph66%29.99 "Hg10 mi
8:54 AM72 °FPassing clouds.12 mph73%29.98 "Hg10 mi
7:54 AM69 °FPassing clouds.9 mph81%29.98 "Hg10 mi
6:54 AM67 °FPassing clouds.7 mph87%29.96 "Hg10 mi
5:54 AM66 °FPassing clouds.7 mph90%29.94 "Hg10 mi
4:54 AM67 °FPassing clouds.6 mph90%29.92 "Hg10 mi
3:54 AM67 °FPassing clouds.7 mph90%29.91 "Hg10 mi
2:54 AM70 °FPassing clouds.6 mph81%29.91 "Hg10 mi
1:54 AM71 °FPassing clouds.5 mph90%29.90 "Hg10 mi
12:54 AM71 °FPassing clouds.6 mph90%29.89 "Hg10 mi
11:54 PM
Mon, Jul 25
72 °FPassing clouds.5 mph93%29.89 "Hg7 mi
10:54 PM72 °FClear.3 mph97%29.88 "Hg8 mi
9:54 PM75 °FPassing clouds.3 mph88%29.87 "Hg10 mi
Weather by CustomWeather, © 2016

See weather overviewHow to use our weather pages